Flag for U.S.A. Weather past 2 weeks in Bridgewater, Massachusetts, U.S.A.

Now
54 °F

Clear.


Feels Like: 54 °F
Forecast: 57 / 79 °F
Wind: No wind

Location: Taunton Municipal Airport

Current Time: Aug 28, 2015 at 3:52:06 AM

Latest Report: Aug 28, 2015 at 3:02 AM


Visibility: 8 mi

Pressure: 30.08 "Hg

Humidity: 93%

Dew point: 52 °F

Location of BridgewaterLocation

Historic Weather in Bridgewater — Graph

°F

Bridgewater temperature yesterday

Maximum temperature yesterday: 82 °F (at 3:52 PM)
Minimum temperature yesterday: 55 °F (at 4:52 AM)
Average temperature yesterday: 68 °F

Past Weeks' High & Low Weather Summary

 TemperatureHumidityPressure
High92 °F (Aug 17, 1:52 PM)97% (Aug 16, 4:52 AM)30.15 "Hg (Aug 16, 4:52 AM)
Low54 °F (Aug 14, 4:56 AM)37% (Aug 13, 2:52 PM)29.83 "Hg (Aug 25, 4:52 PM)
Average75 °F76%30.01 "Hg
* Reported Aug 13 3:57 AM — Aug 28 3:02 AM, Bridgewater, Weather by CustomWeather, © 2015

Note: Actual official high and low records may vary slightly from our data, if they occured in-between our weather recording intervals... More about our weather records

Advertising

Bridgewater weather history for previous 24 hours

 ConditionsComfort  
Time TempWeatherWind HumidityBarometerVisibility
3:02 AM
Fri, Aug 28
54 °FClear.No wind93%30.08 "Hg8 mi
1:52 AM55 °FFog.No wind93%30.07 "Hg5 mi
12:52 AM56 °FClear.No wind93%30.07 "Hg10 mi
11:52 PM
Thu, Aug 27
57 °FClear.No wind93%30.07 "Hg10 mi
10:52 PM58 °FClear.No wind93%30.06 "Hg10 mi
9:52 PM60 °FClear.No wind90%30.04 "Hg10 mi
8:52 PM62 °FClear.No wind86%30.03 "Hg10 mi
7:52 PM69 °FSunny.3 mph63%30.00 "Hg10 mi
6:52 PM76 °FSunny.8 mph48%29.99 "Hg10 mi
5:52 PM79 °FSunny.8 mph44%29.97 "Hg10 mi
4:52 PM81 °FScattered clouds.9 mph42%29.96 "Hg10 mi
3:52 PM82 °FPartly sunny.9 mph40%29.96 "Hg10 mi
2:52 PM80 °FMostly cloudy.8 mph42%29.96 "Hg10 mi
1:52 PM80 °FPassing clouds.6 mph41%29.97 "Hg10 mi
12:52 PM80 °FPassing clouds.10 mph41%29.98 "Hg10 mi
11:52 AM78 °FSunny.7 mph42%29.99 "Hg10 mi
10:52 AM77 °FSunny.5 mph45%30.00 "Hg10 mi
9:52 AM74 °FSunny.6 mph52%29.99 "Hg10 mi
8:52 AM71 °FSunny.6 mph61%29.99 "Hg10 mi
7:52 AM66 °FSunny.3 mph73%29.98 "Hg10 mi
6:52 AM59 °FClear.No wind90%29.97 "Hg10 mi
5:52 AM56 °FClear.5 mph93%29.95 "Hg10 mi
4:52 AM55 °FClear.No wind93%29.94 "Hg8 mi
3:52 AM57 °FClear.No wind90%29.93 "Hg10 mi
Weather by CustomWeather, © 2015

See weather overviewHow to use our weather pages